Powrót do katalogu

STARLINK-36171

AktywnyŁącznośćVLEO
NORAD 67027·PAYLOAD·🇺🇸 United States

Wystrzelony Dec 10, 2025 z Vandenberg Space Force Base

Loading…

Następne Przeloty (najbliższe 24 godziny)

TLE

ŚwieżeSource: CelesTrak SupGP

Epoka: Sep 15, 2026, 03:51 UTC

1 67027C 25293AA  26258.16090278  .00049656  00000+0  41602-2 0  2581
2 67027  70.0021 336.5800 0003642 267.2683  53.2162 14.98315336    11

Śledź STARLINK-36171 w czasie rzeczywistym z AllMySat

Download on the App Store